Weather History for Danville, KY

Change the Weather History Date:

Monday, September 9, 2013

  Actual Average (KLEX) Record (KLEX)
Temperature  
Mean Temperature 76 °F 71 °F  
Max Temperature 87 °F 81 °F 101 °F (1939)
Min Temperature 66 °F 60 °F 45 °F (1943)
Degree Days  
Heating Degree Days 0 1  
Month to date heating degree days 1  
Since 1 July heating degree days 3  
Cooling Degree Days 12 6  
Month to date cooling degree days 66  
Year to date cooling degree days 1083  
Growing Degree Days 26 (Base 50)    
Moisture  
Dew Point 69 °F    
Average Humidity 81    
Maximum Humidity 100    
Minimum Humidity 52    
Precipitation  
Precipitation 0.00 in 0.11 in 2.07 in (1909)
Month to date precipitation 0.85  
Year to date precipitation 32.52  
Snow  
Snow 0.00 in 0.00 in - ()
Month to date snowfall 0.0  
Since 1 July snowfall 0.0  
Since 1 September snowfall 0.0  
Snow Depth -    
Sea Level Pressure  
Sea Level Pressure 30.07 in    
Wind  
Wind Speed 2 mph (SSW)    
Max Wind Speed 9 mph    
Max Gust Speed -    
Visibility 8 miles    
Events      
T = Trace of Precipitation, MM = Missing Value Source: NWS Daily Summary

Daily Weather History Graph

Daily Weather History Graph

Search for Another Location

Airport:

Trip Planner

Search our weather history database for the weather conditions in past years. The results will help you decide how hot, cold, wet, or windy it might be!

Date:

Astronomy

Sep. 09, 2013 Rise Set
Actual Time 7:16 AM EDT 7:55 PM EDT
Civil Twilight 6:49 AM EDT 8:22 PM EDT
Nautical Twilight 6:18 AM EDT 8:53 PM EDT
Astronomical Twilight 5:46 AM EDT 9:25 PM EDT
Moon 11:30 AM EDT (9/9) 10:18 PM EDT (9/9)
Length of Visible Light 13h 32m
Length of Day
12h 39m
Waxing Crescent, 19% of the Moon is Illuminated
Sep 9
Waxing Crescent
Sep 12
First Quarter
Sep 19
Full
Sep 26
Last Quarter
Oct 4
New

Hourly Weather History & Observations

Time (EDT) Temp. Heat Index Dew Point Humidity Pressure Visibility Wind Dir Wind Speed Gust Speed Precip Events Conditions
12:15 AM 68.0 °F - 68.0 °F 100% 30.05 in 7.0 mi Calm Calm - N/A   Clear
12:35 AM 69.8 °F - 68.0 °F 94% 30.05 in 10.0 mi Calm Calm - N/A   Mostly Cloudy
12:55 AM 68.0 °F - 68.0 °F 100% 30.05 in 7.0 mi Calm Calm - N/A   Overcast
1:15 AM 68.0 °F - 68.0 °F 100% 30.05 in 7.0 mi Calm Calm - N/A   Overcast
1:35 AM 68.0 °F - 68.0 °F 100% 30.05 in 7.0 mi Calm Calm - N/A   Mostly Cloudy
1:55 AM 68.0 °F - 68.0 °F 100% 30.06 in 7.0 mi Calm Calm - N/A   Scattered Clouds
2:15 AM 68.0 °F - 66.2 °F 94% 30.05 in 5.0 mi Calm Calm - N/A   Clear
2:35 AM 68.0 °F - 66.2 °F 94% 30.05 in 7.0 mi Calm Calm - N/A   Clear
2:55 AM 68.0 °F - 68.0 °F 100% 30.05 in 7.0 mi Calm Calm - N/A   Clear
3:15 AM 68.0 °F - 66.2 °F 94% 30.05 in 4.0 mi Calm Calm - N/A   Clear
3:35 AM 68.0 °F - 66.2 °F 94% 30.05 in 4.0 mi Calm Calm - N/A   Clear
3:55 AM 66.2 °F - 66.2 °F 100% 30.05 in 7.0 mi Calm Calm - N/A   Clear
4:15 AM 68.0 °F - 66.2 °F 94% 30.05 in 3.0 mi Calm Calm - N/A   Clear
4:35 AM 66.2 °F - 66.2 °F 100% 30.05 in 2.5 mi Calm Calm - N/A   Clear
4:55 AM 66.2 °F - 64.4 °F 94% 30.05 in 3.0 mi Calm Calm - N/A   Scattered Clouds
5:15 AM 66.2 °F - 66.2 °F 100% 30.06 in 3.0 mi Calm Calm - N/A   Clear
5:35 AM 66.2 °F - 66.2 °F 100% 30.05 in 4.0 mi Calm Calm - N/A   Scattered Clouds
5:55 AM 68.0 °F - 66.2 °F 94% 30.06 in 4.0 mi Calm Calm - N/A   Scattered Clouds
6:15 AM 68.0 °F - 66.2 °F 94% 30.06 in 4.0 mi Calm Calm - N/A   Clear
6:35 AM 68.0 °F - 68.0 °F 100% 30.06 in 5.0 mi Calm Calm - N/A   Clear
6:55 AM 68.0 °F - 68.0 °F 100% 30.06 in 5.0 mi Calm Calm - N/A   Clear
7:15 AM 68.0 °F - 68.0 °F 100% 30.07 in 5.0 mi Calm Calm - N/A   Scattered Clouds
7:35 AM 68.0 °F - 68.0 °F 100% 30.07 in 4.0 mi Calm Calm - N/A   Clear
7:55 AM 68.0 °F - 68.0 °F 100% 30.07 in 5.0 mi SSW 4.6 mph - N/A   Clear
8:15 AM 69.8 °F - 68.0 °F 94% 30.08 in 5.0 mi South 3.5 mph - N/A   Clear
8:35 AM 69.8 °F - 68.0 °F 94% 30.08 in 7.0 mi SSW 4.6 mph - N/A   Clear
8:55 AM 71.6 °F - 69.8 °F 94% 30.08 in 7.0 mi SSW 4.6 mph - N/A   Clear
9:15 AM 71.6 °F - 69.8 °F 94% 30.08 in 10.0 mi SSW 4.6 mph - N/A   Clear
9:35 AM 73.4 °F - 69.8 °F 88% 30.08 in 10.0 mi South 3.5 mph - N/A   Clear
9:55 AM 73.4 °F - 69.8 °F 88% 30.09 in 10.0 mi South 4.6 mph - N/A   Clear
10:15 AM 75.2 °F - 69.8 °F 83% 30.09 in 10.0 mi SSW 3.5 mph - N/A   Clear
10:35 AM 77.0 °F - 69.8 °F 78% 30.10 in 10.0 mi SSW 4.6 mph - N/A   Clear
10:55 AM 77.0 °F - 69.8 °F 78% 30.10 in 10.0 mi SSW 4.6 mph - N/A   Clear
11:15 AM 78.8 °F - 69.8 °F 74% 30.10 in 10.0 mi South 5.8 mph - N/A   Clear
11:35 AM 80.6 °F 83.9 °F 69.8 °F 70% 30.10 in 10.0 mi SSW 9.2 mph - N/A   Clear
11:55 AM 82.4 °F 85.4 °F 68.0 °F 62% 30.10 in 10.0 mi South 6.9 mph - N/A   Clear
12:15 PM 82.4 °F 85.4 °F 68.0 °F 62% 30.10 in 10.0 mi SSW 4.6 mph - N/A   Clear
12:35 PM 86.0 °F 90.4 °F 69.8 °F 58% 30.10 in 10.0 mi SW 8.1 mph - N/A   Clear
12:55 PM 86.0 °F 90.4 °F 69.8 °F 58% 30.10 in 10.0 mi SSW 5.8 mph - N/A   Clear
1:15 PM 86.0 °F 90.4 °F 69.8 °F 58% 30.09 in 10.0 mi SW 6.9 mph - N/A   Clear
1:35 PM 86.0 °F 89.4 °F 68.0 °F 55% 30.09 in 10.0 mi SW 5.8 mph - N/A   Clear
1:55 PM 86.0 °F 90.4 °F 69.8 °F 58% 30.09 in 10.0 mi SW 6.9 mph - N/A   Scattered Clouds
2:15 PM 87.8 °F 91.4 °F 68.0 °F 52% 30.09 in 10.0 mi SSW 5.8 mph - N/A   Scattered Clouds
2:35 PM 87.8 °F 91.4 °F 68.0 °F 52% 30.08 in 10.0 mi SSW 4.6 mph - N/A   Scattered Clouds
2:55 PM 87.8 °F 92.6 °F 69.8 °F 55% 30.07 in 10.0 mi SW 8.1 mph - N/A   Scattered Clouds
3:15 PM 87.8 °F 91.4 °F 68.0 °F 52% 30.07 in 10.0 mi SSW 4.6 mph - N/A   Scattered Clouds
3:55 PM 87.8 °F 92.6 °F 69.8 °F 55% 30.06 in 10.0 mi SW 8.1 mph - N/A   Scattered Clouds
4:15 PM 87.8 °F 92.6 °F 69.8 °F 55% 30.06 in 10.0 mi South 5.8 mph - N/A   Scattered Clouds
4:35 PM 87.8 °F 92.6 °F 69.8 °F 55% 30.05 in 10.0 mi SSW 5.8 mph - N/A   Scattered Clouds
4:55 PM 87.8 °F 91.4 °F 68.0 °F 52% 30.05 in 10.0 mi SW 4.6 mph - N/A   Scattered Clouds
5:15 PM 87.8 °F 91.4 °F 68.0 °F 52% 30.05 in 10.0 mi WSW 5.8 mph - N/A   Clear
5:35 PM 87.8 °F 91.4 °F 68.0 °F 52% 30.05 in 10.0 mi SW 6.9 mph - N/A   Clear
5:55 PM 87.8 °F 92.6 °F 69.8 °F 55% 30.05 in 10.0 mi WSW 5.8 mph - N/A   Scattered Clouds
6:15 PM 86.0 °F 89.4 °F 68.0 °F 55% 30.05 in 10.0 mi SW 5.8 mph - N/A   Clear
6:35 PM 86.0 °F 90.4 °F 69.8 °F 58% 30.05 in 10.0 mi SSW 4.6 mph - N/A   Clear
6:55 PM 84.2 °F 88.4 °F 69.8 °F 62% 30.05 in 10.0 mi SSW 3.5 mph - N/A   Clear
7:15 PM 82.4 °F 86.3 °F 69.8 °F 66% 30.05 in 10.0 mi SSW 3.5 mph - N/A   Clear
7:35 PM 80.6 °F 83.2 °F 68.0 °F 65% 30.05 in 10.0 mi Calm Calm - N/A   Clear
7:55 PM 80.6 °F 83.9 °F 69.8 °F 70% 30.06 in 10.0 mi Calm Calm - N/A   Clear
8:15 PM 77.0 °F - 69.8 °F 78% 30.07 in 10.0 mi Calm Calm - N/A   Clear
8:35 PM 77.0 °F - 68.0 °F 74% 30.07 in 10.0 mi Calm Calm - N/A   Clear
8:55 PM 75.2 °F - 69.8 °F 83% 30.07 in 10.0 mi Calm Calm - N/A   Clear
9:15 PM 73.4 °F - 69.8 °F 88% 30.08 in 10.0 mi Calm Calm - N/A   Clear
9:35 PM 71.6 °F - 69.8 °F 94% 30.09 in 7.0 mi Calm Calm - N/A   Clear
9:55 PM 71.6 °F - 69.8 °F 94% 30.09 in 7.0 mi Calm Calm - N/A   Clear
10:15 PM 71.6 °F - 69.8 °F 94% 30.10 in 7.0 mi Calm Calm - N/A   Clear
10:35 PM 71.6 °F - 69.8 °F 94% 30.10 in 7.0 mi SSW 3.5 mph - N/A   Clear
10:55 PM 71.6 °F - 69.8 °F 94% 30.10 in 7.0 mi Calm Calm - N/A   Clear
11:15 PM 71.6 °F - 69.8 °F 94% 30.10 in 5.0 mi SSW 3.5 mph - N/A   Clear
11:35 PM 71.6 °F - 69.8 °F 94% 30.10 in 7.0 mi SSW 3.5 mph - N/A   Clear
11:55 PM 71.6 °F - 69.8 °F 94% 30.11 in 7.0 mi SSW 4.6 mph - N/A   Clear